Wind_Speed
22 21 19 18 13 10 18 18 12 11 11 14 4 14 3 4 10 1 16 7 8 10 7 4 5 7 10 13 13 14 15 17 18 18 18 17 16 14 14 14 13 12 12 11 11 10 9 8 7
25 24 22 21 16 19 24 18 16 10 5 12 9 5 4 11 9 6 10 5 6 8 8 4 4 7 9 13 14 14 15 16 17 17 17 16 16 13 13 13 13 12 11 10 9 8 7 7 6
25 24 21 19 25 35 31 17 12 14 11 6 5 8 9 8 3 4 4 6 4 8 9 7 6 6 9 13 14 15 15 15 15 15 15 15 14 13 12 12 11 10 9 8 8 7 6 5 4
23 23 24 25 31 26 23 18 14 15 11 3 6 13 10 11 6 8 6 3 5 11 12 10 8 8 10 14 15 15 15 14 14 13 13 13 13 12 10 10 11 9 7 7 7 6 5 4 4
23 24 25 31 36 35 29 26 22 18 16 12 16 17 12 11 10 13 14 12 7 13 15 14 11 12 12 14 15 15 14 13 13 12 12 12 11 10 8 8 8 7 6 6 6 5 5 5 5
22 24 24 33 37 33 29 24 22 19 18 17 24 18 22 14 11 13 16 16 13 17 17 17 16 16 16 16 16 16 14 13 12 11 10 10 9 9 8 7 6 6 5 4 5 5 6 5 5
21 25 31 34 35 32 25 15 17 20 20 19 19 18 24 22 21 21 21 20 16 17 22 20 20 19 21 19 18 17 16 14 13 12 11 10 9 9 8 7 6 5 4 3 4 5 5 4 5
22 27 34 34 33 35 24 22 23 21 26 23 16 11 16 18 14 14 19 23 28 21 23 23 24 23 24 23 21 21 20 19 17 14 12 11 10 8 7 6 6 5 3 3 3 3 3 3 3
22 31 36 36 33 33 26 26 26 24 27 26 13 4 5 16 15 16 16 19 22 18 24 25 26 26 25 26 25 24 23 21 19 17 15 13 12 10 8 7 7 6 5 4 4 3 2 1 1
27 36 35 33 32 33 28 26 27 32 30 30 24 11 12 23 22 21 19 18 21 27 23 23 26 28 29 28 29 27 25 23 21 19 17 16 14 12 10 9 8 7 7 6 5 5 4 2 1
25 32 30 31 28 25 27 31 28 35 39 31 29 25 20 27 28 26 24 21 18 23 29 25 25 31 33 32 31 30 28 26 24 22 20 18 16 13 11 11 10 9 8 7 8 7 6 5 4
22 23 22 23 24 27 31 29 31 38 41 37 34 30 28 19 25 32 23 25 23 22 29 28 23 28 33 34 33 32 31 29 26 24 22 19 17 14 14 13 12 10 9 9 9 8 7 7 5
22 24 26 26 23 20 23 27 30 40 44 43 42 38 35 31 22 28 35 21 24 26 26 35 32 27 31 33 35 34 33 32 29 27 24 21 18 17 15 15 14 11 11 11 11 11 9 8 8
26 30 32 32 31 32 34 36 33 36 37 46 51 48 41 37 32 27 31 33 21 30 28 31 35 33 29 29 32 36 36 34 32 29 25 23 20 19 17 16 15 12 13 12 13 12 11 11 9
23 28 29 29 30 34 35 43 43 38 37 42 38 42 43 49 41 37 32 36 27 23 31 31 36 39 34 36 31 31 37 36 34 31 27 24 22 20 18 17 15 13 14 15 14 14 14 12 12
18 19 22 14 9 10 15 36 26 22 23 27 32 36 38 43 54 48 39 34 37 21 29 34 33 42 35 40 38 34 29 36 34 32 29 25 23 22 20 18 16 16 16 17 16 16 14 10 14
15 19 25 27 20 25 28 39 31 27 27 29 31 35 34 26 34 54 49 42 36 29 24 24 32 36 37 43 43 38 33 29 33 33 32 27 25 23 20 18 19 18 18 19 17 15 11 13 11
29 31 32 33 35 28 34 42 41 39 39 37 32 29 32 32 30 35 48 56 46 40 34 28 25 36 42 44 46 43 35 31 28 31 32 29 26 25 21 21 22 18 18 17 16 13 10 13 12
31 33 34 34 32 34 38 41 41 42 48 46 36 35 28 28 38 38 39 45 53 51 42 35 34 31 41 43 47 44 41 32 27 29 30 30 27 26 23 23 20 17 17 16 15 12 12 12 15
28 30 34 36 32 34 38 38 41 45 47 46 41 37 33 29 33 36 39 37 40 45 42 33 34 37 35 42 45 31 37 30 22 26 33 31 29 27 25 23 18 19 17 17 12 13 14 15 18
30 32 34 35 35 34 35 43 52 51 41 43 38 40 37 32 29 37 39 42 39 37 37 33 31 36 37 39 36 33 60 26 30 29 34 32 30 28 25 23 21 20 17 15 13 14 16 17 19
38 30 33 38 37 30 20 24 48 33 25 31 39 36 44 39 37 32 32 38 47 43 38 37 36 38 40 38 39 27 37 35 57 44 30 35 31 29 26 24 23 20 17 15 14 16 17 20 22
34 30 34 34 39 29 26 18 49 45 40 28 14 23 24 32 31 39 39 34 43 47 43 38 37 35 43 43 38 34 32 35 41 44 35 38 34 30 27 25 24 21 18 16 17 17 18 21 22
18 20 26 29 26 12 26 22 50 30 26 17 10 18 21 22 23 33 33 38 37 39 48 44 38 31 42 49 41 42 36 38 41 43 41 42 40 33 31 27 25 22 20 19 19 17 19 21 21
15 20 7 6 5 10 17 17 31 34 30 17 17 23 26 29 29 32 30 38 43 45 44 41 46 40 41 49 43 45 47 43 39 42 45 46 45 36 31 28 26 23 23 21 18 17 20 20 21
25 21 7 5 4 14 25 13 26 24 32 32 32 28 27 27 29 33 33 35 44 44 42 40 45 42 37 47 47 47 51 46 44 40 41 49 45 36 30 29 27 26 24 19 17 19 19 20 22
19 24 24 21 29 17 18 32 37 32 22 20 21 22 20 25 26 31 38 40 49 50 49 45 40 44 41 44 50 53 53 50 47 40 40 48 43 37 33 31 28 27 24 20 18 18 18 21 23
10 18 12 11 4 13 10 20 19 13 14 17 18 19 23 25 28 27 32 36 44 48 52 53 47 42 45 37 50 55 51 50 46 44 44 49 43 37 37 32 30 28 24 19 18 18 20 20 16
20 15 13 13 12 4 10 9 7 12 13 10 15 22 30 36 38 37 34 38 38 43 42 41 44 49 48 42 44 52 52 50 49 47 46 52 48 42 37 33 31 27 23 18 18 18 18 14 13
9 10 20 9 9 15 14 20 32 18 15 23 34 39 40 41 38 37 34 37 37 36 40 43 38 51 48 45 41 49 51 52 50 46 48 54 44 42 37 35 27 26 21 17 17 16 12 12 13
Wind_Direction
271 271 272 273 271 256 253 247 255 244 41 42 30 206 205 272 186 107 144 166 132 127 174 186 169 168 177 175 163 152 145 141 140 138 133 129 125 122 116 110 107 105 101 97 94 90 87 86 81
265 266 265 264 255 253 260 255 245 274 332 348 43 99 98 120 127 96 178 170 156 136 179 191 177 167 177 177 168 159 150 143 140 139 135 130 123 121 117 113 111 108 105 101 97 93 90 81 74
260 260 257 252 254 250 255 257 270 277 290 338 352 272 279 281 246 307 260 201 151 167 170 191 184 180 177 180 175 167 158 150 145 141 135 129 124 125 123 119 116 112 109 107 101 94 85 77 63
253 249 246 244 246 254 258 267 276 273 246 154 351 313 233 247 249 249 185 166 207 190 182 192 189 188 183 183 181 176 168 159 153 147 138 132 130 131 129 124 121 118 117 115 105 98 84 69 52
241 246 240 248 253 258 259 265 270 292 298 299 315 312 251 268 245 247 235 251 239 211 201 197 196 191 188 185 185 184 179 170 163 157 147 141 138 138 138 133 132 133 131 122 112 96 79 58 46
231 234 238 244 256 259 258 261 268 270 277 274 308 339 284 245 233 228 240 241 242 220 210 205 202 194 194 191 188 189 189 180 173 167 161 155 154 155 154 151 150 146 140 129 110 96 74 51 37
240 241 243 250 254 254 251 244 239 254 261 269 294 301 300 251 250 246 241 240 234 228 214 211 207 203 197 195 193 192 190 187 183 179 175 173 172 172 170 168 172 162 145 131 118 93 69 44 28
248 243 249 253 257 260 249 232 230 249 245 262 289 331 314 249 232 219 220 224 238 236 219 218 215 211 205 200 199 196 193 192 194 192 189 190 189 187 185 188 193 188 171 171 138 116 98 66 35
246 242 250 254 260 265 262 258 223 244 252 245 263 280 171 230 255 244 234 229 224 222 220 216 222 218 215 210 206 205 202 203 200 200 198 199 198 196 196 203 213 208 194 195 192 181 171 113 38
234 245 255 263 268 272 270 259 248 243 241 235 230 193 162 186 208 245 246 242 238 244 239 225 222 227 220 219 215 214 211 211 208 207 207 208 204 206 206 214 220 212 207 213 223 217 215 206 224
240 250 259 263 270 278 281 264 247 245 241 245 245 215 166 176 189 205 239 259 249 237 247 239 231 224 229 224 223 220 219 219 215 214 214 213 215 212 212 219 224 218 218 221 232 231 229 222 248
255 259 266 272 273 276 273 266 253 243 250 259 257 244 207 205 199 203 206 228 241 249 241 248 240 233 232 228 227 229 225 224 223 221 222 220 222 215 220 224 227 222 223 229 231 239 242 240 255
249 258 253 252 251 251 258 259 264 244 243 249 256 251 233 216 215 199 206 213 226 234 257 254 253 244 234 234 231 230 232 228 224 224 224 224 222 219 226 230 231 228 231 232 233 246 244 252 261
258 253 252 251 251 253 255 255 252 255 259 245 251 257 250 238 228 219 203 210 232 227 231 252 254 251 253 249 239 237 235 232 227 225 224 223 221 224 228 233 236 232 234 236 240 252 250 252 275
261 270 263 259 263 265 264 263 259 262 263 266 263 258 262 249 241 236 216 205 215 231 227 221 248 249 248 256 256 252 238 234 230 227 226 224 223 227 231 234 237 236 238 231 243 253 241 261 309
294 277 289 298 320 300 291 286 283 280 279 275 271 269 265 256 247 243 235 216 213 221 235 218 223 246 245 250 250 252 253 242 233 227 226 220 223 223 229 234 237 234 236 236 244 257 265 298 308
293 289 300 303 304 303 291 292 288 281 283 286 280 282 266 270 255 245 240 234 215 221 242 213 222 229 242 242 245 248 246 249 247 232 227 220 221 224 224 226 233 234 238 239 254 272 268 309 300
299 293 293 287 300 298 291 284 276 276 276 275 272 273 272 257 266 249 240 237 234 230 247 246 229 222 233 242 238 238 242 245 248 242 230 222 219 225 223 225 233 236 241 245 262 258 273 303 300
298 294 286 290 290 296 292 288 283 272 277 280 276 266 260 256 250 258 250 240 237 237 243 249 246 226 226 238 239 227 236 239 245 238 229 221 217 222 222 227 234 242 244 245 255 263 279 278 290
294 294 291 286 292 295 288 287 287 282 279 273 266 262 256 255 248 243 249 243 236 241 243 245 253 253 237 234 239 211 224 223 234 232 229 219 217 219 218 227 230 235 236 247 263 256 271 278 289
291 293 292 290 294 289 291 293 284 281 283 270 267 259 256 261 254 244 242 243 239 235 240 248 249 258 249 241 236 244 229 243 238 228 226 220 217 218 219 224 223 229 233 239 258 260 273 276 279
288 289 289 290 286 285 277 286 293 296 302 266 267 263 257 256 253 247 256 250 237 241 242 248 246 239 250 246 236 239 252 259 226 228 230 225 217 218 219 221 220 224 226 235 247 252 262 270 278
282 286 284 286 273 279 268 271 277 292 301 308 299 257 253 248 248 249 254 251 236 240 244 247 255 247 236 248 237 230 239 228 246 228 228 227 219 216 220 218 217 221 221 233 242 249 261 275 276
299 293 291 279 263 246 266 252 284 292 310 312 329 307 280 260 248 247 247 243 247 246 242 242 251 245 233 240 237 228 227 236 232 229 227 222 223 211 218 213 214 216 221 234 243 252 266 272 276
286 316 329 302 264 263 270 264 255 293 299 291 294 284 282 275 268 256 245 241 246 248 243 248 244 255 232 228 237 228 230 229 237 239 234 224 222 211 214 211 211 214 222 232 243 253 264 271 281
299 290 248 283 249 285 290 252 261 282 284 283 280 272 271 274 269 260 252 248 246 246 247 255 243 246 241 225 227 225 232 229 232 238 236 225 224 213 209 209 210 215 221 229 240 250 258 271 282
289 281 272 280 284 276 264 271 284 292 288 270 257 252 252 266 273 270 261 244 249 248 249 249 250 237 242 229 225 222 228 228 227 233 235 228 222 211 205 208 210 216 218 225 237 244 256 269 279
289 293 284 265 301 265 263 276 261 268 274 262 259 262 272 288 291 290 276 262 255 252 249 249 250 236 237 232 224 219 220 226 230 229 232 227 216 208 206 203 209 215 215 221 230 242 257 272 263
319 312 299 289 254 273 286 256 270 287 253 300 309 299 290 285 285 290 295 255 253 247 247 235 237 229 234 231 225 220 214 219 226 226 230 220 205 203 198 201 207 209 209 215 231 244 258 251 241
247 289 302 282 284 275 301 281 279 238 285 296 302 299 295 287 292 294 287 275 249 246 235 235 236 228 224 232 229 220 216 218 221 223 226 209 192 209 190 201 201 203 201 215 231 240 230 227 239
Height
3162 3163 3164 3164 3169 3162 3158 3158 3161 3161 3167 3164 3164 3165 3162 3161 3163 3169 3165 3166 3165 3165 3166 3169 3168 3169 3171 3172 3173 3173 3172 3171 3171 3171 3172 3172 3173 3175 3175 3176 3177 3178 3178 3179 3179 3179 3179 3179 3179
3158 3159 3160 3161 3162 3158 3154 3156 3158 3162 3164 3163 3168 3162 3162 3161 3163 3164 3166 3165 3165 3164 3166 3168 3168 3169 3171 3173 3173 3174 3173 3173 3174 3174 3173 3173 3173 3176 3177 3177 3178 3179 3180 3180 3180 3179 3179 3179 3179
3153 3154 3157 3156 3154 3150 3152 3154 3157 3160 3163 3164 3164 3163 3163 3162 3163 3163 3163 3164 3164 3164 3166 3168 3168 3169 3170 3173 3174 3174 3174 3175 3175 3175 3176 3175 3175 3177 3178 3179 3180 3180 3181 3181 3181 3181 3180 3180 3180
3147 3150 3151 3148 3145 3148 3150 3152 3155 3156 3160 3163 3163 3162 3159 3162 3161 3162 3162 3162 3162 3164 3165 3167 3168 3169 3170 3173 3174 3174 3175 3175 3176 3176 3176 3177 3177 3178 3180 3180 3180 3181 3182 3182 3182 3181 3181 3181 3180
3142 3143 3143 3139 3140 3143 3149 3150 3153 3154 3156 3159 3161 3159 3154 3157 3158 3158 3161 3162 3163 3164 3164 3166 3167 3168 3170 3172 3173 3174 3175 3175 3176 3177 3177 3178 3178 3179 3180 3181 3181 3181 3182 3181 3181 3181 3181 3181 3180
3138 3138 3135 3132 3134 3140 3144 3149 3149 3150 3152 3153 3155 3156 3154 3152 3154 3156 3158 3159 3161 3162 3163 3164 3165 3166 3169 3170 3172 3173 3174 3175 3176 3177 3178 3178 3178 3179 3180 3181 3181 3181 3181 3181 3181 3181 3181 3181 3180
3135 3133 3129 3129 3129 3132 3140 3146 3146 3145 3146 3149 3149 3150 3147 3149 3151 3152 3154 3157 3158 3159 3160 3162 3163 3165 3166 3168 3169 3171 3172 3174 3175 3176 3177 3178 3178 3178 3179 3179 3180 3180 3180 3181 3180 3180 3181 3181 3180
3132 3129 3125 3125 3127 3127 3135 3138 3140 3141 3138 3143 3148 3148 3144 3144 3146 3148 3149 3152 3155 3157 3158 3160 3161 3162 3163 3165 3166 3168 3169 3171 3173 3174 3175 3176 3177 3178 3179 3179 3179 3179 3179 3180 3180 3180 3179 3180 3179
3127 3123 3119 3122 3125 3125 3131 3131 3134 3133 3132 3136 3142 3144 3144 3145 3143 3142 3144 3145 3150 3152 3154 3155 3158 3159 3161 3162 3163 3165 3166 3168 3170 3172 3173 3174 3175 3176 3177 3178 3178 3178 3178 3178 3178 3179 3178 3178 3178
3121 3116 3117 3122 3123 3122 3125 3126 3126 3126 3127 3129 3134 3140 3140 3141 3140 3138 3139 3141 3145 3148 3152 3152 3154 3157 3157 3159 3160 3161 3163 3165 3167 3169 3171 3172 3173 3174 3176 3176 3177 3177 3177 3177 3177 3178 3176 3176 3177
3116 3113 3117 3117 3119 3120 3119 3118 3122 3118 3117 3124 3125 3130 3132 3134 3136 3134 3138 3137 3139 3142 3143 3148 3149 3150 3154 3155 3157 3158 3160 3162 3164 3166 3168 3169 3171 3173 3174 3174 3175 3175 3176 3176 3177 3177 3175 3174 3174
3111 3111 3112 3112 3113 3112 3111 3112 3109 3111 3111 3115 3118 3120 3124 3127 3128 3129 3131 3132 3134 3136 3138 3140 3144 3145 3147 3150 3152 3155 3157 3159 3162 3163 3165 3167 3169 3170 3171 3172 3173 3173 3174 3175 3176 3175 3174 3172 3172
3107 3107 3106 3106 3106 3106 3106 3105 3105 3102 3107 3109 3109 3112 3115 3117 3122 3122 3124 3123 3126 3130 3132 3133 3137 3140 3143 3145 3147 3150 3153 3155 3157 3159 3161 3164 3166 3167 3169 3169 3170 3172 3172 3173 3174 3173 3172 3172 3171
3103 3100 3099 3100 3102 3102 3101 3098 3099 3099 3102 3103 3103 3106 3110 3110 3113 3116 3117 3120 3117 3121 3125 3128 3129 3134 3138 3140 3142 3146 3148 3151 3153 3156 3158 3161 3163 3164 3165 3167 3169 3170 3170 3171 3172 3171 3171 3171 3169
3099 3095 3094 3096 3098 3095 3096 3089 3091 3096 3097 3095 3095 3096 3099 3102 3105 3107 3112 3114 3111 3113 3116 3118 3124 3126 3131 3135 3138 3140 3143 3145 3148 3152 3155 3157 3160 3161 3163 3165 3166 3167 3168 3169 3169 3169 3170 3169 3167
3095 3094 3091 3092 3093 3093 3092 3080 3086 3089 3089 3087 3088 3085 3086 3089 3093 3096 3101 3105 3107 3107 3107 3110 3115 3117 3123 3127 3131 3134 3139 3142 3144 3147 3150 3154 3156 3157 3158 3161 3163 3163 3165 3166 3167 3168 3167 3167 3165
3093 3089 3088 3085 3088 3087 3085 3076 3080 3081 3079 3079 3079 3078 3075 3078 3081 3086 3092 3097 3099 3099 3101 3101 3103 3110 3115 3121 3122 3128 3133 3137 3141 3143 3146 3150 3152 3154 3156 3158 3159 3161 3161 3163 3165 3165 3165 3164 3163
3087 3086 3083 3081 3081 3081 3075 3070 3071 3072 3072 3071 3072 3073 3070 3070 3071 3073 3078 3082 3087 3090 3092 3095 3097 3101 3106 3111 3113 3118 3126 3131 3135 3140 3142 3144 3147 3149 3153 3155 3156 3158 3158 3159 3160 3162 3162 3161 3160
3085 3082 3077 3075 3077 3074 3069 3063 3062 3063 3061 3061 3062 3064 3064 3064 3064 3065 3068 3071 3077 3080 3081 3085 3091 3094 3097 3103 3106 3108 3116 3125 3129 3132 3137 3139 3142 3144 3148 3150 3152 3153 3155 3157 3159 3160 3160 3159 3158
3082 3077 3072 3069 3069 3068 3062 3056 3054 3053 3052 3051 3052 3053 3055 3056 3058 3057 3059 3063 3067 3072 3075 3077 3082 3087 3092 3096 3099 3103 3108 3115 3122 3127 3132 3135 3137 3139 3142 3145 3148 3151 3153 3154 3156 3157 3157 3156 3155
3075 3072 3068 3066 3063 3059 3057 3048 3039 3039 3041 3040 3041 3043 3046 3047 3049 3050 3052 3054 3059 3064 3069 3071 3074 3078 3085 3090 3096 3100 3102 3102 3114 3120 3126 3131 3133 3133 3136 3140 3144 3147 3150 3152 3154 3154 3154 3153 3151
3065 3068 3062 3059 3057 3052 3050 3040 3025 3028 3025 3027 3030 3031 3036 3040 3043 3044 3047 3048 3050 3053 3060 3062 3067 3070 3075 3084 3090 3093 3092 3096 3108 3114 3121 3125 3127 3127 3130 3136 3141 3143 3146 3149 3150 3150 3150 3149 3148
3059 3060 3056 3051 3048 3046 3042 3042 3011 3026 3020 3020 3018 3024 3026 3030 3033 3035 3038 3040 3043 3044 3051 3055 3056 3059 3067 3074 3083 3088 3091 3100 3100 3106 3114 3118 3120 3121 3126 3132 3137 3139 3142 3143 3144 3146 3147 3145 3144
3054 3051 3046 3042 3040 3035 3035 3038 3005 3017 3016 3015 3016 3018 3019 3021 3022 3026 3027 3029 3031 3035 3036 3044 3047 3046 3054 3065 3073 3082 3086 3092 3094 3098 3107 3109 3112 3115 3121 3128 3133 3135 3136 3138 3140 3142 3141 3141 3140
3052 3048 3044 3040 3036 3027 3030 3028 3012 3011 3012 3013 3011 3012 3014 3015 3017 3019 3022 3023 3023 3025 3027 3032 3036 3038 3043 3053 3062 3072 3077 3083 3086 3092 3098 3102 3106 3110 3116 3124 3127 3128 3130 3134 3136 3138 3136 3135 3135
3047 3048 3047 3040 3034 3024 3027 3011 3004 3009 3008 3008 3005 3006 3007 3007 3007 3009 3011 3014 3015 3016 3019 3022 3026 3030 3033 3041 3052 3062 3068 3072 3077 3084 3090 3096 3102 3106 3113 3118 3122 3123 3126 3129 3131 3132 3132 3131 3130
3041 3040 3039 3032 3027 3019 3010 3003 3000 2999 2998 2998 3000 3000 3000 3000 2997 2998 3000 3001 3002 3005 3008 3011 3016 3021 3026 3032 3040 3049 3057 3064 3068 3076 3083 3088 3096 3101 3107 3113 3115 3119 3123 3125 3126 3127 3127 3127 3126
3037 3036 3031 3027 3024 3011 2998 2996 2994 2996 2996 2996 2995 2994 2993 2992 2992 2991 2988 2987 2987 2991 2995 2999 3004 3010 3018 3024 3031 3039 3048 3056 3062 3069 3074 3080 3090 3097 3102 3106 3110 3116 3118 3119 3120 3122 3122 3124 3123
3029 3029 3028 3024 3020 3009 2997 2987 2987 2991 2991 2989 2989 2989 2987 2984 2983 2981 2978 2977 2976 2978 2982 2986 2993 2999 3009 3014 3021 3031 3038 3047 3055 3060 3065 3071 3080 3089 3094 3099 3106 3111 3112 3114 3117 3118 3119 3120 3119
3024 3023 3022 3021 3012 3004 2997 2979 2983 2988 2983 2983 2983 2981 2978 2975 2974 2971 2967 2967 2967 2969 2973 2976 2983 2990 2998 3006 3013 3022 3029 3038 3045 3052 3057 3045 3067 3076 3086 3095 3101 3105 3107 3109 3113 3114 3115 3116 3117